Theta_e
337 337 331 328 328 327 320 319 301 311 307 300 299 301 300 307 307 305 306 308 305 308 309 310 310 309 307 307 308 308 309 305 307 301 304 321 334 331 338 340 337 340 337 345 348 347 349 348 349 351 352 351 350 351 350 350 350 350 350 350 350 350 350 350 349 350 349 349 349 349 348 348 348 347 348 348 347 347 346 347 347 347 348 348 348 349 349 348 348 348 347 346 344 343 341 340 338
332 330 331 330 326 320 315 316 303 301 304 299 301 302 303 304 305 305 304 305 306 308 309 310 310 310 310 310 310 310 309 311 312 311 314 325 331 334 336 340 335 338 337 343 348 345 348 349 347 349 351 350 350 351 350 351 350 350 350 350 350 350 350 349 349 349 349 349 349 349 349 349 348 348 347 347 347 346 346 347 347 347 348 347 347 348 347 348 347 347 346 344 342 341 339 338 337
330 328 326 327 322 317 313 313 299 300 297 295 299 302 306 303 303 306 306 306 309 309 309 310 310 309 309 309 307 307 305 313 313 314 315 326 318 331 335 341 336 339 337 343 347 344 346 346 345 349 351 351 350 350 350 350 350 350 350 350 350 349 350 349 349 349 348 349 349 349 349 349 348 348 347 346 347 346 346 346 346 347 347 346 347 347 347 347 346 345 344 342 340 339 338 337 336
333 331 324 322 312 318 307 308 305 300 297 297 298 303 303 303 304 305 307 309 309 309 309 309 308 312 308 306 308 312 310 311 315 314 313 322 329 333 335 339 338 338 337 343 347 346 346 346 344 349 351 351 350 350 350 351 350 350 349 349 349 349 349 348 349 348 349 349 349 349 349 348 348 348 346 345 344 345 345 345 346 346 346 346 345 346 346 346 345 343 342 340 340 338 337 336 335
333 327 326 322 313 307 309 305 302 301 296 300 297 302 304 305 305 306 307 309 310 309 308 309 308 312 312 310 311 306 308 313 314 317 316 330 330 336 335 339 335 336 338 341 345 347 346 345 344 346 351 351 350 350 350 350 350 350 349 349 349 349 349 348 349 349 349 349 349 348 348 348 347 347 346 345 344 344 344 344 344 344 344 344 344 344 344 343 343 342 340 338 338 337 335 334 333
327 325 328 321 310 316 308 300 300 300 303 304 300 302 304 306 305 307 308 309 310 309 309 309 307 308 307 309 312 309 315 307 316 316 320 330 332 335 336 340 331 334 338 341 343 346 347 342 344 346 350 350 350 350 350 350 350 349 349 349 349 349 348 348 349 349 349 348 348 347 348 347 346 346 345 343 343 343 343 343 343 342 342 342 342 341 340 341 341 340 338 337 337 335 333 332 331
325 320 317 316 313 312 301 300 300 301 303 305 302 303 305 305 306 307 308 308 310 310 310 308 310 309 306 311 313 314 316 320 314 323 333 332 335 334 338 335 333 333 338 340 343 346 349 341 345 348 349 349 350 350 350 350 349 349 349 349 349 348 348 348 349 348 348 348 347 347 347 346 346 345 344 343 342 341 341 341 341 341 341 341 340 340 339 339 339 338 337 336 335 333 331 330 329
326 319 316 306 308 305 301 302 301 303 303 306 305 304 305 306 307 307 307 306 306 307 308 309 309 305 307 311 306 316 318 317 323 325 326 326 336 338 339 334 333 333 337 338 343 345 342 340 344 346 347 349 350 350 350 349 349 349 349 348 348 348 348 349 349 348 348 347 347 346 346 346 345 344 343 342 341 340 339 338 339 339 340 339 338 337 338 337 337 337 336 334 333 331 329 328 327
321 315 318 310 302 307 301 299 301 305 305 306 306 308 310 308 309 307 306 308 309 309 309 309 309 304 307 308 308 315 316 319 321 323 324 327 331 337 336 335 332 335 337 337 342 345 348 340 343 345 346 348 349 350 350 349 349 349 349 348 348 348 348 349 348 348 348 347 346 346 346 345 344 343 342 341 341 340 339 339 339 338 338 338 337 336 335 335 336 335 335 332 330 328 327 326 325
316 314 309 307 307 299 300 302 301 304 303 306 305 305 306 307 307 308 307 307 308 308 309 309 309 305 309 306 309 313 317 319 319 321 323 326 330 335 334 337 336 337 338 338 342 343 345 338 339 342 344 347 348 349 350 349 349 349 349 348 348 348 348 348 348 348 347 347 347 346 345 344 343 343 341 341 342 340 338 338 335 336 337 336 334 333 332 333 332 332 331 330 328 326 325 324 323
310 311 315 304 302 300 300 300 302 304 304 306 307 308 309 309 307 307 307 307 309 307 308 308 306 306 308 308 310 326 320 319 316 317 323 324 332 334 333 337 338 339 338 341 341 342 342 345 334 338 342 343 346 348 348 349 349 349 349 348 348 349 349 348 348 347 347 347 347 345 344 344 343 342 341 341 341 335 334 334 333 334 333 332 332 332 332 332 331 330 329 328 326 325 324 323 322
310 307 309 301 300 300 300 300 301 302 304 305 305 308 309 308 307 306 307 306 308 308 308 308 306 309 306 307 311 319 319 315 318 325 325 328 327 334 335 336 338 340 340 341 341 340 341 344 343 335 336 338 342 344 346 346 347 348 348 348 349 348 348 348 348 347 347 347 346 345 345 343 342 342 341 337 334 334 333 333 333 332 332 332 332 332 331 330 330 330 328 326 325 324 324 322 321
310 312 305 301 300 302 301 300 301 303 303 304 305 307 309 307 306 307 306 306 307 306 307 311 311 309 304 306 311 314 314 317 320 323 325 324 328 334 336 334 337 339 339 341 339 340 342 340 342 343 340 332 335 337 340 342 344 346 347 348 347 347 347 347 348 348 347 347 345 344 344 343 342 342 337 336 335 334 333 333 332 332 332 331 332 332 331 330 330 328 326 325 324 323 323 322 320
310 312 308 301 307 302 300 300 301 301 301 305 306 307 308 306 307 308 307 304 306 305 309 312 310 309 305 307 309 311 317 319 319 322 322 327 331 331 334 334 337 337 339 339 338 339 341 340 339 342 344 342 345 337 333 337 341 344 344 345 345 345 345 346 346 346 345 342 341 340 338 338 337 338 337 335 335 334 333 333 332 332 332 331 331 331 330 329 329 327 325 325 324 323 322 321 319
309 314 306 304 301 302 303 299 300 300 300 305 306 306 306 308 308 307 306 304 305 310 310 312 311 307 303 306 306 317 316 320 321 322 327 327 329 330 333 334 335 336 337 337 337 338 338 339 338 339 341 342 342 343 345 341 332 338 341 342 342 342 343 342 343 341 339 339 338 336 333 333 331 332 333 334 334 334 332 330 333 331 331 331 331 330 329 329 328 326 325 324 323 321 320 318 317
316 311 306 302 299 301 302 302 302 301 301 305 306 307 305 307 309 306 307 308 307 312 310 306 311 306 309 307 309 315 316 319 321 324 324 326 327 328 329 330 330 332 334 335 335 337 338 338 339 338 338 340 340 340 340 343 333 329 334 337 337 338 338 338 337 335 332 332 332 330 327 328 326 330 325 330 328 332 330 328 330 332 330 330 330 329 329 329 327 326 325 324 322 320 319 317 314
314 312 303 302 298 300 303 302 302 298 304 305 306 306 303 304 308 309 309 308 306 307 308 311 308 311 308 309 315 314 317 320 322 323 324 323 324 323 325 326 327 329 332 333 334 335 337 337 337 338 338 337 340 340 340 340 340 328 328 328 330 333 334 334 334 329 324 323 325 321 322 333 332 332 330 331 322 331 324 322 327 331 330 330 329 329 329 328 327 325 324 323 321 319 316 314 313
312 304 302 299 301 301 304 303 303 306 303 304 305 306 305 302 306 307 307 306 306 307 307 309 311 311 312 313 317 318 318 317 322 320 321 322 323 321 321 324 325 326 330 331 333 334 335 336 337 337 337 337 337 337 338 338 341 333 340 339 337 334 329 327 333 337 328 336 323 327 332 331 332 332 331 326 330 329 326 320 325 330 329 331 330 327 327 327 326 325 324 322 320 316 312 310 308
306 304 303 299 303 304 308 306 305 304 303 305 305 306 305 304 305 307 304 304 305 305 307 309 309 310 312 313 313 317 317 317 320 317 317 320 321 320 322 323 324 326 328 330 331 333 334 335 337 336 336 337 337 337 337 337 337 339 340 339 339 330 334 335 337 336 336 335 333 332 330 331 331 332 331 329 329 322 326 319 324 327 329 329 329 327 326 326 325 324 323 321 317 313 313 313 308
308 304 300 302 307 306 308 308 305 306 306 304 304 305 305 306 306 308 303 303 305 303 304 306 307 307 310 312 313 313 314 314 317 317 315 316 319 319 319 322 323 324 326 329 330 333 334 334 335 336 336 337 336 336 336 336 336 337 337 338 336 336 337 336 336 335 334 333 333 332 331 331 331 331 324 320 323 327 325 319 322 324 325 324 324 326 326 326 324 323 320 317 312 312 310 307 308
308 305 301 303 306 305 307 307 308 307 307 305 304 305 304 306 307 306 304 302 303 305 307 306 306 308 310 311 312 313 313 313 314 316 316 315 317 319 318 320 323 325 326 329 330 331 332 334 335 335 336 337 337 335 334 334 334 335 334 334 334 333 333 333 334 334 333 333 332 331 331 331 331 330 329 328 326 327 326 325 326 326 326 325 320 324 323 322 322 319 315 312 309 308 307 307 308
309 305 307 306 306 304 308 308 307 307 307 305 304 303 303 308 306 304 304 300 301 304 307 308 308 309 309 309 311 312 313 314 312 313 315 316 316 316 318 319 321 324 326 326 328 330 332 333 334 335 335 336 336 335 334 334 332 333 333 334 334 334 334 333 332 332 332 333 332 330 330 329 329 329 328 327 326 327 326 324 324 325 324 323 322 322 321 321 318 316 312 308 305 306 307 307 306
301 304 305 307 307 304 307 307 306 305 305 304 303 305 307 305 304 306 305 303 305 309 309 309 310 310 311 311 311 311 311 312 312 312 313 315 316 316 315 317 318 320 325 326 327 329 331 332 333 334 334 335 336 335 334 334 333 333 333 334 334 333 333 333 332 332 332 332 332 331 329 328 327 327 326 326 325 325 324 323 323 324 324 323 322 320 319 319 316 312 307 306 305 306 306 307 307
305 300 304 304 306 306 308 306 306 306 305 304 306 307 304 304 301 306 304 307 309 310 310 310 310 311 311 310 310 310 310 310 311 312 314 314 316 317 318 316 317 319 324 326 326 327 330 330 331 332 333 334 334 334 333 333 333 333 333 332 333 332 332 331 331 331 332 331 331 330 328 329 326 325 325 323 323 323 324 324 324 323 324 323 321 320 319 317 313 308 306 306 306 306 305 305 305
303 301 304 305 306 306 307 306 306 306 306 307 306 303 303 305 304 305 303 307 309 310 311 310 310 311 310 310 310 310 310 311 311 312 313 315 317 318 319 319 319 318 318 322 325 325 327 329 330 329 331 331 333 333 332 332 332 332 332 332 332 328 331 331 331 332 331 331 331 330 329 327 326 326 324 323 323 322 323 323 323 321 323 323 320 320 318 313 308 305 305 305 304 304 304 304 303
303 304 305 305 305 306 306 305 305 306 305 305 303 302 304 305 306 303 305 306 308 309 309 309 309 309 309 309 309 309 309 310 311 311 312 315 317 316 317 317 318 317 318 319 323 325 325 328 328 329 330 330 331 331 332 331 331 331 331 331 331 330 330 331 332 330 330 330 329 329 329 328 327 325 323 323 321 321 322 323 323 323 322 321 319 316 314 310 306 304 304 304 303 303 302 303 302
304 303 303 302 303 303 304 303 303 304 304 305 301 301 302 305 303 298 305 307 308 308 308 309 308 307 307 308 308 309 308 309 309 310 311 313 314 315 317 318 317 318 318 318 319 323 325 325 328 328 329 329 330 329 330 329 330 330 330 331 331 330 331 331 330 330 330 329 328 329 329 328 327 325 323 322 321 321 320 321 321 320 319 317 315 313 311 308 305 304 303 302 303 303 302 302 301
303 302 301 301 302 303 303 303 303 304 302 304 303 301 303 303 302 300 304 307 308 306 307 307 307 307 307 308 308 310 309 310 310 311 310 310 311 313 315 315 316 317 318 318 319 321 324 324 326 327 327 328 328 328 329 329 329 329 330 331 331 331 330 330 330 330 328 328 328 328 328 327 326 324 322 321 320 320 319 320 319 318 316 315 313 311 308 306 304 304 305 305 304 303 302 301 303
302 301 296 299 301 300 303 302 303 304 302 303 303 299 298 299 298 303 306 307 307 306 306 306 306 306 307 308 308 308 309 310 311 310 311 311 312 312 311 315 316 316 318 319 319 320 321 323 324 326 327 328 327 327 328 328 328 329 329 330 330 331 329 329 329 329 329 328 328 327 327 327 325 323 321 320 319 319 318 318 317 316 315 313 312 310 308 306 304 304 304 304 303 303 302 301 304
301 300 298 297 298 298 303 305 304 302 302 302 301 290 296 299 302 304 307 307 307 305 305 305 306 306 307 307 307 308 309 309 309 311 312 312 312 312 311 312 312 314 317 319 319 319 320 323 324 325 326 326 327 327 327 327 327 328 328 329 329 329 328 328 328 329 328 327 326 325 326 326 325 323 321 320 318 317 317 316 315 315 314 312 310 308 305 304 303 303 303 302 302 301 300 301 299
297 300 300 295 294 295 303 302 302 298 302 301 301 292 295 299 302 305 307 306 305 303 304 304 305 305 306 307 307 307 308 309 310 310 312 312 311 313 312 312 312 312 313 316 318 319 319 321 322 322 324 325 326 326 325 326 327 327 327 328 328 328 328 328 327 327 327 327 325 323 324 324 323 322 320 318 316 315 315 314 314 313 313 311 307 306 305 303 302 301 300 299 300 300 300 299 298
300 295 293 297 295 297 302 303 301 298 300 301 299 292 295 299 302 305 306 305 304 302 303 303 304 305 305 306 306 307 307 309 310 310 310 310 311 310 311 311 311 311 311 312 315 319 317 318 321 321 322 323 325 325 326 326 326 327 327 323 327 328 327 326 326 326 326 326 325 322 323 323 321 321 319 317 315 314 313 312 313 312 312 308 307 306 304 301 301 301 300 300 298 298 299 298 298
299 296 294 294 297 297 299 303 304 303 300 299 299 294 297 298 303 304 305 305 304 303 303 304 304 305 305 306 306 307 307 308 310 310 310 310 310 310 310 310 311 311 311 312 312 314 317 316 318 319 320 321 323 324 325 326 326 326 326 326 326 327 326 326 326 326 326 325 324 322 321 321 319 320 318 316 315 313 312 311 311 312 309 307 306 304 302 301 301 302 299 300 300 299 299 299 298
296 299 295 298 295 297 295 301 303 305 301 297 298 294 295 298 301 303 304 304 303 302 302 303 304 304 305 306 306 306 307 307 307 308 308 309 310 311 310 309 310 311 311 310 312 312 313 315 317 319 319 320 321 323 323 324 325 325 325 325 325 325 325 325 325 324 324 323 323 321 320 319 317 318 316 315 314 313 311 310 310 310 307 306 305 303 302 301 302 301 299 300 299 299 298 298 297
296 297 296 297 299 298 296 296 301 301 300 297 299 297 297 300 302 303 304 305 303 302 302 303 303 304 305 305 306 306 307 307 307 308 309 310 309 309 308 309 309 309 309 309 309 311 313 314 315 317 317 317 318 320 322 323 323 323 324 324 323 323 324 323 323 322 322 322 321 321 319 317 316 317 315 313 312 311 309 308 308 308 306 305 304 302 301 301 301 301 300 300 300 300 299 299 297
297 297 296 296 294 295 296 299 303 302 299 297 298 296 297 299 300 302 303 304 303 303 303 303 304 305 305 306 307 307 307 306 308 310 310 310 310 310 309 309 308 308 308 307 307 309 310 312 314 315 315 314 316 317 320 320 320 320 319 320 320 320 321 320 321 321 321 321 320 319 317 316 315 315 314 312 311 309 308 307 306 306 305 304 303 301 299 299 300 300 300 300 299 300 300 299 299
299 299 297 295 295 296 299 300 302 303 299 297 297 297 297 298 299 300 302 303 303 302 302 303 304 305 306 307 306 305 306 306 311 310 309 308 308 308 308 307 307 307 306 306 307 307 308 310 311 312 314 313 314 314 316 317 317 317 318 317 317 318 318 319 319 320 320 319 319 318 316 315 315 314 313 312 310 308 307 306 305 305 303 303 302 301 300 301 301 300 300 299 299 298 298 299 299
298 296 295 294 296 294 298 299 302 303 298 296 297 296 296 297 299 300 302 302 301 302 302 303 304 305 306 305 305 306 305 309 309 307 307 306 305 305 305 305 304 303 303 303 304 306 307 308 309 310 312 312 312 313 314 315 316 316 316 316 316 317 317 316 316 317 317 318 317 316 314 314 314 312 311 311 309 309 306 305 304 303 302 301 302 302 301 300 301 300 300 297 299 297 297 299 298
297 295 295 294 295 298 299 300 301 300 296 294 297 294 295 297 299 301 301 302 303 304 305 305 305 305 305 305 305 305 306 306 305 305 305 304 304 303 303 302 302 302 302 302 303 304 305 306 308 309 311 311 311 311 312 313 314 316 315 315 316 315 317 317 317 316 316 316 315 314 313 312 312 310 310 310 309 308 306 304 303 303 301 301 300 300 300 300 300 299 299 296 295 297 296 299 297
295 295 293 292 296 294 292 298 297 297 296 294 296 294 295 298 300 302 303 303 303 306 306 306 307 303 303 303 304 305 304 304 303 302 302 302 302 301 301 300 300 301 300 301 302 302 303 304 305 307 309 310 310 310 310 312 313 314 315 315 315 315 314 314 314 314 313 313 312 311 312 311 311 309 309 308 307 307 306 304 303 302 301 301 300 299 300 300 299 299 299 298 297 293 294 295 298
297 297 295 294 295 296 295 295 297 298 298 299 296 294 296 300 298 299 301 304 303 304 305 304 304 305 306 306 305 304 303 302 301 301 301 300 300 300 299 299 300 299 299 299 300 301 302 303 304 305 307 308 309 309 309 309 310 311 312 310 310 311 309 308 309 309 309 309 309 309 309 310 310 308 308 307 306 306 306 304 303 301 301 300 300 299 300 299 299 299 298 297 296 294 293 295 296
295 298 297 297 297 296 296 296 294 293 293 294 294 288 291 297 298 299 302 303 303 306 303 302 302 303 303 303 303 303 303 302 300 300 299 299 299 299 298 298 298 298 298 298 300 301 301 302 303 305 306 307 307 308 308 308 308 307 307 306 305 305 305 305 304 305 306 306 306 309 309 309 309 308 308 307 306 305 305 304 303 301 300 299 299 299 300 300 299 298 298 297 297 297 296 294 294
293 295 300 299 297 296 295 294 294 288 287 294 296 287 285 296 296 299 301 301 301 304 301 301 301 302 302 301 300 300 301 300 300 299 299 298 297 297 297 296 296 296 297 298 299 300 300 301 302 303 303 304 306 305 307 306 306 306 306 306 306 305 304 306 307 308 307 308 308 307 307 307 308 307 307 307 306 305 304 304 303 301 300 300 299 298 298 299 299 299 299 297 297 297 298 294 293
292 298 299 298 296 294 295 294 292 290 295 296 295 293 287 288 295 301 300 299 301 299 299 300 300 300 299 299 299 299 299 299 298 297 297 297 296 296 295 296 296 296 297 297 298 299 299 299 300 301 302 302 303 304 304 305 304 305 305 305 305 304 304 304 306 305 306 306 306 306 306 305 305 306 306 306 305 304 303 303 303 302 300 300 299 298 298 299 300 300 299 297 298 296 296 295 294
295 296 297 295 295 294 294 293 291 292 290 287 293 295 288 289 297 300 300 297 298 296 297 298 299 299 298 298 299 299 298 297 297 296 295 295 295 295 295 295 295 296 296 296 297 297 298 298 298 298 299 300 301 302 303 304 304 303 304 304 303 305 304 304 305 305 304 304 303 304 304 304 304 304 305 305 305 304 302 302 302 301 300 299 298 298 298 299 299 299 298 297 296 296 296 296 296
299 296 297 296 296 296 294 291 291 291 288 285 291 293 287 289 297 298 298 297 295 295 296 297 299 298 298 298 298 297 297 297 296 296 295 295 295 295 295 295 295 295 296 297 297 297 297 297 296 296 297 298 298 299 301 302 303 303 302 303 303 303 304 304 304 303 303 303 302 302 302 302 302 302 303 303 303 303 302 302 301 301 300 299 298 298 298 298 299 299 298 297 296 296 296 296 296
296 298 295 295 295 294 294 292 291 288 284 288 294 294 292 286 294 297 297 297 296 295 296 297 298 297 297 297 296 296 295 294 294 294 294 294 295 294 295 294 294 294 295 295 296 297 297 296 296 295 295 296 297 298 299 299 301 301 301 302 302 301 302 303 302 302 302 302 301 301 301 301 301 301 301 301 302 302 302 302 301 301 301 300 298 298 297 298 299 299 299 298 297 296 296 296 296
297 293 292 292 292 293 290 289 291 285 284 289 292 294 294 284 291 297 297 297 298 297 296 296 296 296 296 295 295 295 294 294 294 293 292 293 293 293 293 293 293 293 293 294 295 296 295 295 295 294 294 295 296 296 297 297 298 299 300 300 300 301 301 301 300 301 301 301 301 301 301 301 300 301 300 300 300 301 301 301 301 300 300 299 299 298 297 297 298 299 298 297 296 297 297 295 296
294 293 291 287 286 287 284 288 283 285 285 287 290 292 288 289 293 297 300 299 298 298 298 296 296 295 294 294 294 294 294 293 293 292 292 292 291 291 291 292 292 292 292 293 293 294 294 294 294 294 293 294 294 295 295 296 296 296 296 297 298 299 299 300 300 300 301 300 300 300 300 300 300 299 299 299 299 300 300 299 300 299 299 299 299 299 298 298 297 297 297 297 296 296 295 295 295
292 290 289 286 282 282 279 283 286 285 289 288 289 293 286 292 294 300 299 300 297 297 298 298 297 296 294 294 294 293 293 292 292 292 291 291 291 291 291 291 291 291 291 292 292 293 293 293 293 293 293 294 294 294 294 294 294 295 295 296 296 297 297 298 298 299 299 300 300 300 300 300 300 300 299 299 299 300 300 300 300 299 299 299 299 299 298 298 297 296 296 296 296 296 295 295 294
293 297 294 289 287 282 278 281 279 281 284 289 290 287 286 286 292 300 302 299 297 297 297 297 296 295 294 293 293 292 292 291 292 291 291 290 291 291 291 291 291 291 291 291 291 292 292 292 292 292 292 293 293 293 294 293 293 294 294 295 295 295 295 296 296 297 297 298 299 299 299 299 299 299 300 300 300 300 299 299 299 299 299 299 299 298 298 298 297 296 296 296 295 295 295 294 294
295 295 295 289 288 291 283 286 285 285 285 285 287 286 292 292 300 300 301 298 296 296 295 295 293 293 293 292 291 291 290 290 291 291 290 290 290 290 290 290 290 290 290 291 291 291 291 291 291 291 291 292 292 292 293 293 294 293 293 293 293 294 294 295 295 296 296 297 297 297 297 298 298 299 299 300 301 300 299 299 299 298 299 299 298 298 297 297 297 296 295 294 294 295 294 293 293
292 292 287 290 296 293 287 287 288 286 285 282 289 288 292 298 298 300 301 296 294 294 294 293 292 292 292 290 290 289 290 290 290 290 289 289 289 289 290 290 290 290 290 290 290 291 291 291 291 290 291 291 291 292 292 292 293 293 293 293 292 293 293 293 293 294 294 295 296 296 296 297 297 298 298 299 299 300 299 299 298 298 298 298 298 297 297 296 296 295 294 294 293 294 293 293 293
292 286 291 293 298 295 289 282 285 284 280 281 287 284 287 288 284 294 294 293 292 293 292 292 291 291 289 289 288 288 288 288 288 289 289 289 289 289 289 290 289 289 289 289 289 290 291 291 291 290 290 290 291 291 291 291 291 292 292 292 292 292 292 292 293 293 293 294 294 295 295 295 296 297 297 298 298 298 299 297 297 297 297 297 297 297 296 296 295 294 294 294 293 294 293 293 293
293 291 296 289 285 284 288 285 277 278 278 280 284 287 287 288 288 293 293 291 291 291 291 290 290 289 288 287 287 288 288 288 288 288 288 288 288 288 288 288 289 289 289 289 289 290 290 290 290 291 290 290 290 291 291 291 291 291 291 291 291 291 292 292 292 292 293 292 292 293 293 294 295 295 295 296 296 296 296 297 297 296 296 296 296 296 295 295 295 294 294 293 293 293 292 292 292
295 295 292 297 290 286 284 286 285 284 278 279 279 285 282 292 292 295 295 294 292 291 290 289 288 288 288 288 287 287 287 287 288 288 288 288 288 287 287 287 288 288 288 289 289 289 288 289 289 289 290 290 290 290 290 290 291 290 290 290 290 290 291 291 291 292 291 291 291 291 291 292 293 293 293 294 294 294 295 295 295 295 295 295 295 295 295 294 294 293 293 292 292 292 291 291 291
288 288 288 291 288 292 291 290 286 283 280 280 279 278 284 291 296 295 294 294 294 292 289 288 287 286 286 286 286 286 286 287 287 287 287 287 287 287 287 288 288 289 289 289 289 288 288 288 288 289 288 288 288 289 289 289 290 290 289 289 289 289 289 289 290 291 290 290 291 291 291 291 291 292 292 292 292 293 293 294 294 294 294 294 294 294 294 294 293 292 292 292 292 291 291 291 291
292 291 288 290 287 285 281 279 290 286 283 280 279 277 286 293 294 295 293 293 292 292 288 287 286 286 286 287 286 286 286 286 286 287 287 287 287 287 287 288 288 288 288 288 288 288 287 287 288 288 288 288 288 288 288 289 289 290 289 289 289 289 289 289 288 288 288 289 289 290 291 291 290 291 291 291 291 292 292 292 292 293 293 294 294 294 293 293 292 292 291 292 291 291 290 290 290
Wind_Speed
7 5 4 4 5 5 6 2 6 4 4 4 6 2 4 1 4 4 3 4 1 5 5 4 3 4 5 7 8 9 9 9 7 7 6 2 3 4 4 5 3 5 12 10 11 13 12 11 11 13 13 15 15 14 14 12 13 13 13 12 12 11 12 12 11 11 11 10 10 10 9 9 9 8 8 8 7 6 5 4 4 4 4 4 5 6 8 9 9 9 9 7 7 9 10 9 9
4 4 4 4 4 4 2 4 4 6 5 6 1 2 7 4 4 2 6 6 5 6 5 4 4 5 6 8 8 9 10 8 8 7 3 4 6 4 7 5 5 6 11 10 10 13 12 14 9 11 13 16 15 14 14 13 13 12 11 12 11 11 11 11 12 11 11 10 10 10 10 10 9 9 9 8 7 6 6 6 5 5 6 6 6 7 7 8 8 8 8 7 7 9 9 9 9
4 5 3 4 5 5 5 4 5 5 5 5 3 5 3 1 2 5 6 6 6 4 3 4 4 5 7 7 8 5 4 3 4 4 5 6 4 6 8 7 5 6 11 8 9 12 11 14 10 10 14 15 16 15 14 13 13 13 12 12 11 11 11 11 11 11 11 10 10 11 11 11 10 10 9 9 8 7 6 6 7 7 7 7 7 7 8 8 8 7 7 6 7 9 9 9 9
5 3 5 2 3 3 5 4 6 6 5 4 2 6 5 4 5 6 6 4 4 2 2 3 3 5 5 6 4 5 9 4 4 4 4 2 5 3 7 9 7 6 9 7 9 11 11 14 13 10 12 15 16 14 13 13 13 13 12 12 12 11 11 11 11 11 11 11 11 11 10 10 11 11 10 8 7 7 6 6 7 6 7 7 7 7 8 8 7 7 6 5 7 9 9 9 8
4 2 3 4 4 4 2 4 5 4 6 5 6 6 5 3 5 7 6 5 4 2 3 2 5 5 5 8 5 4 5 6 1 1 2 4 2 3 8 8 8 8 9 9 9 10 11 16 15 11 12 13 16 14 13 13 13 13 13 12 12 11 11 11 11 12 12 12 11 11 10 11 11 10 10 8 7 6 6 6 5 5 5 6 6 6 7 6 6 7 5 5 7 9 9 8 8
4 3 2 4 3 4 4 5 5 6 5 4 5 6 8 7 7 7 8 7 2 2 2 4 6 5 3 4 5 5 4 5 3 3 2 3 2 2 8 8 8 9 10 10 10 9 9 17 17 12 12 13 15 15 12 13 14 13 13 13 12 12 12 12 12 13 12 12 12 11 12 11 10 10 8 8 7 7 6 4 5 4 4 4 5 5 5 5 5 6 4 5 6 8 8 8 7
2 3 3 3 2 3 4 5 7 5 3 2 4 7 8 8 7 7 7 7 5 1 2 3 1 5 7 3 6 8 4 2 4 2 3 3 2 2 7 7 7 9 10 11 10 10 10 17 15 14 11 11 14 14 12 13 14 13 13 13 13 13 12 12 12 13 13 12 11 11 11 10 10 9 8 7 6 6 5 4 3 3 4 4 4 4 4 4 5 4 4 4 6 8 8 8 7
2 4 2 5 2 3 5 5 6 5 2 2 6 8 8 8 8 7 8 6 1 3 5 4 4 2 7 2 6 6 3 2 1 4 4 2 4 4 7 7 7 8 10 11 10 9 13 16 15 14 12 12 12 12 13 13 14 14 13 14 14 13 13 13 13 12 11 12 12 11 11 10 9 8 7 8 5 4 5 3 5 6 5 3 3 4 4 4 4 5 4 4 6 7 8 8 8
3 5 1 4 5 4 5 6 6 4 7 5 6 6 7 7 6 6 7 5 6 3 4 4 4 4 4 2 5 5 4 5 4 3 2 3 3 5 5 7 7 7 10 10 9 9 9 12 14 13 12 12 12 12 13 15 15 15 14 15 14 13 14 13 13 12 11 12 12 12 12 11 10 9 8 8 9 8 7 9 9 6 5 6 6 5 6 5 5 5 5 4 6 7 7 8 8
3 4 2 4 4 6 5 5 5 2 5 4 6 8 7 6 5 4 6 7 3 4 0 3 2 8 10 11 8 4 4 5 5 3 4 3 3 5 5 6 6 7 9 9 9 9 8 10 12 12 12 12 12 12 13 14 15 14 14 15 14 13 13 13 12 12 12 13 13 12 12 10 10 10 10 10 10 9 10 11 8 8 7 8 7 6 5 6 5 5 4 5 7 7 7 7 7
4 3 2 5 5 5 5 4 4 3 3 2 6 5 3 2 3 4 4 6 4 5 1 3 5 10 8 8 8 3 7 6 4 1 5 4 3 5 5 6 5 7 9 9 8 8 8 10 9 10 11 12 12 13 13 14 15 14 15 14 14 13 11 12 13 13 13 14 14 13 12 12 11 10 10 11 11 7 6 8 8 8 7 6 6 6 6 6 5 5 5 6 7 7 7 8 8
4 3 3 5 5 5 6 6 8 7 8 7 5 4 3 1 1 3 2 6 3 4 6 8 2 5 8 8 6 4 6 5 4 5 5 4 4 5 3 4 5 7 8 9 8 8 8 9 9 8 9 11 12 13 13 13 13 14 14 13 13 13 14 14 13 14 13 13 11 10 10 10 10 12 11 7 6 6 8 9 9 9 8 7 7 6 7 6 6 6 7 7 7 7 8 8 8
5 2 5 6 5 5 6 7 6 7 9 3 3 5 3 2 3 2 5 6 8 7 8 8 2 3 7 8 7 1 7 7 5 5 4 3 3 4 3 3 6 6 7 8 9 8 9 9 12 12 9 9 9 12 13 13 13 13 14 13 13 13 13 14 13 12 12 10 10 10 9 7 10 9 8 8 7 8 8 9 8 9 8 8 8 7 7 7 7 7 8 7 7 7 8 8 9
5 3 5 7 2 7 7 7 7 6 5 6 3 5 2 3 2 3 4 8 8 9 4 3 3 4 12 10 9 5 5 4 5 4 3 3 2 3 4 4 5 6 8 9 9 10 10 10 12 13 13 9 10 8 11 12 12 13 14 13 13 13 13 13 12 11 9 9 8 7 5 6 9 8 8 8 9 8 8 8 8 9 9 9 8 7 7 7 8 8 8 8 8 8 8 9 9
4 2 4 5 7 5 6 6 5 7 7 4 4 2 3 5 3 3 6 8 7 6 1 2 4 1 4 3 5 5 4 6 4 5 4 3 3 3 4 4 5 6 7 9 10 10 11 11 12 13 14 15 15 13 11 10 11 11 13 14 13 14 13 12 11 11 10 10 9 8 7 9 9 10 8 8 8 6 5 4 5 11 10 10 9 8 8 8 8 9 8 8 8 8 8 8 9
4 3 4 6 7 5 2 4 4 5 6 3 5 1 3 7 6 5 3 3 9 8 2 6 8 8 9 11 10 4 7 6 6 6 6 5 3 3 4 5 5 7 7 9 10 11 11 12 11 12 14 15 15 14 14 14 10 11 10 12 12 13 12 11 11 10 9 10 9 9 9 9 9 8 10 7 6 6 6 6 7 7 10 10 9 9 10 9 9 9 9 9 9 9 9 8 8
3 3 6 6 8 6 3 4 1 5 5 5 7 3 6 7 6 4 2 3 10 13 10 10 10 9 15 15 4 7 8 7 6 7 6 5 4 4 4 5 5 7 7 10 11 10 12 13 14 11 13 15 15 15 13 14 13 12 9 10 11 11 11 11 11 10 9 8 9 9 10 9 8 7 7 8 8 7 7 7 7 7 10 10 10 10 10 10 10 10 10 10 9 10 9 9 8
4 5 6 8 7 9 5 6 6 5 7 10 7 2 6 10 4 4 2 9 12 14 15 15 13 15 16 14 5 6 8 7 7 7 6 5 5 5 6 6 7 8 9 9 11 12 12 13 15 14 11 15 15 13 11 11 9 13 13 10 9 9 9 9 9 9 8 7 9 9 8 8 8 8 8 9 8 9 8 9 7 7 10 8 9 11 10 10 10 10 10 10 10 10 10 5 5
6 6 7 9 7 7 5 7 9 10 9 9 10 7 8 12 9 6 8 11 11 14 15 14 15 16 17 16 14 7 7 7 8 8 9 10 8 9 8 7 9 8 9 9 9 14 12 12 14 15 14 14 15 14 10 10 12 9 13 15 10 10 10 9 10 9 9 10 8 9 9 9 9 8 8 8 7 10 9 10 8 6 8 8 9 10 10 10 10 10 10 9 9 8 4 3 4
8 8 9 10 9 12 10 8 11 10 11 12 11 11 11 10 10 6 10 14 13 15 14 14 15 14 12 14 13 14 10 10 9 9 11 12 12 11 10 10 9 11 11 10 10 10 13 12 14 15 15 14 14 13 12 12 11 10 10 12 13 12 11 9 11 12 12 13 11 10 10 10 9 8 6 11 7 8 7 11 9 7 7 9 9 7 8 9 9 9 8 8 6 4 2 2 3
4 8 9 8 8 8 8 8 9 11 10 11 12 12 13 12 11 9 9 12 13 15 15 17 18 14 12 11 10 7 9 10 10 11 12 13 13 11 11 11 10 9 9 8 8 10 14 14 13 14 14 14 14 12 12 13 13 12 12 13 14 13 12 13 11 13 12 12 13 11 11 9 8 8 7 7 8 8 8 9 7 8 8 8 9 8 7 7 7 6 5 5 4 3 2 2 2
5 10 12 13 13 13 10 11 11 7 3 9 13 13 13 8 6 11 13 14 12 11 12 13 16 16 15 14 12 10 7 10 11 12 13 14 14 14 12 11 10 8 7 9 10 10 13 14 13 11 13 14 14 13 12 11 12 12 12 12 13 12 11 11 11 12 12 12 11 11 10 11 11 8 7 8 9 8 8 9 9 9 9 9 9 7 7 7 7 6 5 5 3 3 2 2 1
9 11 14 15 15 16 11 11 2 1 9 11 13 11 10 10 13 12 13 17 18 17 16 17 19 19 17 15 13 11 11 13 14 14 14 13 14 14 13 11 9 9 7 9 9 9 11 13 14 12 12 13 15 13 11 11 12 11 12 13 12 11 11 11 11 11 12 12 12 11 11 11 11 10 8 9 10 8 8 9 9 9 9 9 9 8 8 7 6 5 5 5 3 3 3 2 2
9 14 12 15 10 13 12 12 1 6 10 15 13 13 14 14 18 13 15 16 20 21 18 19 20 19 17 16 14 14 14 15 15 15 14 14 14 14 12 12 10 8 8 8 8 9 9 12 14 14 12 13 13 14 13 11 11 12 12 11 11 11 11 11 11 11 11 12 12 13 12 11 11 11 9 9 9 8 8 8 8 9 8 8 9 8 7 7 6 5 5 5 4 3 3 3 3
11 13 12 13 11 10 11 11 12 10 12 13 13 15 19 16 16 16 23 19 18 19 19 19 19 18 16 15 15 14 14 14 15 15 13 11 11 11 9 8 9 9 10 9 8 10 11 11 14 15 13 14 12 13 13 11 11 12 11 11 12 11 11 10 10 11 11 10 12 12 12 12 12 10 9 9 9 9 8 9 8 8 8 8 8 7 7 6 6 5 5 5 4 4 4 3 3
12 16 14 12 13 11 10 12 13 12 10 10 11 16 19 18 17 21 25 22 20 20 21 20 17 15 14 14 14 14 14 14 13 14 14 10 9 10 9 9 9 11 12 11 10 10 11 13 15 16 16 14 12 12 12 12 12 11 12 12 11 11 11 10 11 11 10 10 11 14 12 13 11 9 9 9 9 9 9 9 8 8 8 7 8 7 6 6 5 5 5 5 5 4 4 4 3
5 8 9 11 13 15 15 17 17 15 15 12 12 15 17 15 8 14 12 10 6 8 11 12 12 13 14 13 12 12 13 14 14 13 11 8 8 8 9 9 10 12 11 13 12 11 11 13 14 16 16 14 13 13 12 13 12 12 11 11 11 13 11 11 10 10 10 11 11 12 15 14 10 9 9 10 9 9 9 9 8 8 8 7 7 6 6 6 5 5 5 5 5 4 4 4 3
9 9 12 16 17 17 18 17 19 12 13 14 15 16 16 16 11 17 18 15 10 10 12 13 13 14 14 15 14 12 12 11 10 10 12 11 7 7 9 9 11 11 12 13 12 11 11 14 14 15 16 15 14 14 13 12 12 12 12 11 12 12 13 11 11 10 10 10 12 14 15 12 10 10 10 10 10 9 9 9 8 8 8 7 7 6 6 5 5 4 5 4 4 4 4 4 3
8 7 11 14 15 15 18 18 18 14 13 2 3 9 12 14 13 20 20 18 15 15 14 12 14 15 15 15 14 13 12 12 10 10 10 9 8 8 11 9 10 11 10 12 12 11 12 12 12 14 15 15 16 16 13 12 12 12 12 11 11 10 12 12 11 11 10 11 11 12 12 12 11 10 10 10 10 9 9 9 9 8 8 7 7 7 7 5 5 5 5 4 4 4 4 4 3
7 11 12 14 13 14 16 11 9 7 5 8 4 9 5 9 15 16 17 13 11 9 10 13 14 14 14 14 13 14 14 13 13 10 8 7 8 9 11 12 12 11 8 7 10 12 10 8 9 10 13 16 16 15 13 11 12 11 10 10 10 11 12 13 11 10 10 10 10 11 12 12 11 10 9 10 9 9 9 9 9 8 7 7 7 7 7 6 6 6 6 5 5 5 5 5 5
8 10 5 9 11 12 8 5 5 6 7 9 7 12 10 13 15 15 10 2 6 9 12 16 17 17 15 13 14 15 17 14 14 12 10 9 8 7 10 11 11 12 9 8 9 11 12 10 8 9 11 15 14 14 14 12 11 10 10 10 11 12 12 11 10 10 10 10 9 9 12 12 12 11 10 9 10 9 9 8 9 7 7 7 7 6 7 6 6 7 6 6 6 5 5 5 5
8 8 9 8 10 8 9 5 10 9 5 8 9 10 9 7 6 7 7 2 6 12 14 17 17 17 17 14 15 16 16 13 11 9 9 8 7 8 9 11 10 9 10 10 8 7 10 11 9 9 10 13 13 13 12 11 10 10 9 9 9 11 10 10 10 10 10 10 10 9 12 12 12 12 11 10 9 9 8 8 8 8 9 7 7 7 7 7 7 6 7 7 7 6 6 5 4
10 11 12 11 11 12 11 7 6 11 2 9 12 12 12 13 11 11 12 16 17 16 17 18 20 20 19 15 13 13 12 11 8 7 6 7 8 8 9 9 8 8 8 8 9 8 8 10 9 10 11 12 13 12 12 11 10 9 9 9 10 9 9 9 9 9 10 9 9 9 11 12 12 12 11 11 9 9 8 8 8 9 8 8 7 7 7 7 7 6 7 6 6 7 6 6 5
9 9 12 10 13 12 10 7 11 4 6 8 13 12 13 15 14 15 17 18 17 16 18 20 19 16 16 14 13 13 12 9 8 6 7 8 8 10 9 9 9 9 7 7 6 8 7 7 8 8 8 9 10 10 11 10 9 8 8 7 8 8 8 8 8 8 8 8 9 9 10 11 11 12 11 11 9 9 8 8 8 9 8 8 7 7 8 7 7 7 7 7 7 7 7 7 6
11 12 13 13 12 12 15 13 7 6 9 13 13 17 17 17 16 14 15 15 14 15 19 19 17 16 16 14 12 11 9 5 5 7 9 9 11 10 9 9 9 8 6 7 5 4 5 5 5 5 7 7 8 8 8 9 9 8 7 7 8 8 7 8 8 8 7 8 11 10 9 10 10 12 11 11 10 9 9 8 8 9 8 8 7 8 8 8 7 8 7 7 6 5 5 6 6
16 16 13 14 14 13 13 14 15 15 18 16 17 17 17 16 15 15 15 15 17 18 18 18 18 17 16 11 9 5 5 5 6 7 8 9 9 10 9 10 9 9 8 6 6 4 3 4 4 3 4 6 6 6 6 6 7 7 7 7 8 8 8 10 10 7 8 9 11 9 8 9 10 10 11 10 10 9 9 8 8 8 8 8 8 8 9 9 10 10 9 9 8 5 4 6 6
18 15 13 15 16 16 14 17 14 13 15 12 13 16 18 17 15 16 17 17 17 18 16 17 18 15 11 7 4 6 4 5 5 8 10 12 12 11 11 10 11 11 12 12 9 7 4 3 3 4 3 5 5 6 6 6 7 7 7 8 8 7 9 12 9 8 10 10 11 8 7 8 8 10 10 10 10 9 8 8 8 8 8 8 8 9 9 9 9 9 7 7 9 7 5 6 7
14 14 15 15 13 16 13 17 14 15 12 12 12 16 16 17 18 21 20 16 16 17 17 18 18 13 3 8 3 3 3 5 7 9 11 12 13 14 12 11 13 15 15 14 13 11 8 6 4 3 2 4 5 5 5 6 6 6 6 6 7 6 7 7 8 8 9 10 8 6 6 7 8 8 8 9 9 10 9 9 8 8 9 9 8 8 9 8 10 9 8 7 6 9 7 8 8
14 12 12 13 12 15 17 17 9 5 4 12 13 18 16 19 21 20 18 13 11 12 13 15 10 3 3 4 2 3 7 8 10 11 12 12 13 14 11 11 12 13 13 14 14 13 10 7 4 3 2 2 3 4 5 5 5 5 5 4 5 5 4 4 5 6 8 8 6 5 6 6 7 7 8 8 8 10 10 9 8 8 9 8 9 9 10 10 10 12 11 9 8 6 6 7 9
10 10 10 12 11 12 11 7 2 3 4 12 14 17 14 18 19 14 9 9 9 10 14 7 5 4 2 5 6 8 9 10 11 12 13 13 13 13 13 13 12 11 11 12 14 13 9 9 8 6 3 1 1 2 4 3 3 3 4 4 2 3 2 2 3 3 4 5 5 5 5 5 7 7 8 9 7 8 10 10 8 8 9 9 9 10 11 11 11 10 11 11 10 9 8 8 9
9 11 11 12 13 12 13 13 14 16 15 13 11 12 11 6 3 6 8 7 6 11 1 9 7 6 9 10 12 12 12 11 11 12 13 13 14 15 14 14 12 13 14 14 13 12 9 10 9 8 5 4 3 2 1 2 1 2 2 2 1 2 1 1 3 5 6 6 6 6 8 8 9 9 9 10 9 9 9 9 9 8 9 10 9 9 10 11 11 12 13 12 13 11 10 7 9
10 12 14 16 15 16 14 15 14 9 8 7 10 10 4 2 1 4 5 7 12 11 10 10 10 7 10 12 12 12 12 12 13 12 13 12 13 13 14 15 16 15 15 14 12 12 12 9 9 8 6 6 6 5 3 2 2 2 3 3 4 4 5 5 7 6 6 7 7 6 6 8 8 8 8 9 10 9 10 10 9 9 9 9 9 10 9 9 11 12 13 13 13 12 11 8 8
9 6 3 6 8 10 12 11 8 7 6 1 5 5 10 4 12 13 10 9 14 7 10 8 9 11 10 12 12 10 10 11 12 13 13 15 14 14 16 17 15 15 14 12 11 11 11 9 9 9 8 7 7 7 6 3 3 3 4 5 5 5 5 4 4 5 4 4 4 6 6 7 8 9 9 9 9 10 10 9 10 10 9 9 10 10 10 11 10 12 11 12 12 12 10 10 12
9 4 4 5 8 9 8 6 6 10 9 12 9 8 10 12 7 9 6 12 9 10 8 10 12 13 13 13 12 12 12 12 10 12 13 14 15 15 16 15 15 14 13 12 11 10 11 11 11 11 9 10 9 8 7 6 5 4 5 4 4 5 5 6 5 3 3 3 3 4 5 5 7 8 9 9 9 10 9 9 9 9 9 9 9 10 11 9 7 9 11 13 10 12 13 11 11
3 2 5 5 5 7 5 6 7 8 9 10 3 8 6 9 6 2 7 10 3 9 11 11 12 13 13 12 12 12 12 11 11 10 13 13 14 14 14 14 14 14 14 13 11 11 10 10 12 12 12 11 11 11 9 7 6 6 6 5 5 5 5 5 5 3 3 2 4 4 5 5 6 8 9 9 9 9 9 10 9 9 9 9 9 8 10 9 11 11 12 12 13 12 12 11 10
2 0 1 2 3 5 6 6 8 8 7 12 6 10 5 12 6 3 5 6 4 9 10 11 9 11 10 10 11 12 10 10 10 10 11 11 11 10 10 11 13 13 11 11 11 10 8 8 13 14 14 11 10 11 10 9 8 6 5 6 7 7 7 6 5 5 4 3 3 4 4 5 5 6 8 9 8 9 9 10 9 10 10 10 8 9 10 10 10 10 12 13 13 12 11 12 12
2 2 6 8 7 7 6 6 5 5 9 11 9 14 8 9 5 5 3 2 8 9 8 10 13 11 10 9 9 9 9 8 7 8 10 10 10 10 10 11 11 11 9 10 9 7 7 12 14 16 14 11 12 11 11 10 8 7 6 7 6 6 7 7 7 7 6 5 5 4 4 4 5 5 6 7 9 9 10 9 9 10 10 9 9 9 10 10 8 8 9 12 12 13 11 11 11
1 4 5 6 8 7 4 3 3 5 9 4 8 5 9 7 2 3 4 4 7 5 5 9 11 11 9 8 7 8 9 7 7 8 10 10 9 10 10 11 11 12 11 9 7 8 11 14 14 16 16 14 12 11 11 11 9 8 8 8 7 7 7 5 6 7 7 7 6 6 4 4 5 5 5 6 7 9 8 9 9 10 9 10 11 9 9 9 8 7 8 9 10 12 12 10 10
5 5 4 5 5 4 8 4 6 6 7 3 2 3 5 12 10 12 7 6 6 4 7 11 12 11 10 9 8 7 7 8 8 9 10 10 8 7 9 9 8 6 5 7 10 11 12 14 16 16 16 15 13 12 12 11 10 10 9 8 8 7 7 7 7 6 6 6 6 6 6 5 4 5 5 6 7 8 8 8 9 9 9 10 10 9 9 11 10 9 8 10 12 13 13 13 12
6 5 3 4 7 6 9 6 6 10 1 2 2 2 8 11 11 14 16 5 9 10 10 12 12 12 11 9 7 7 7 8 8 9 8 4 5 7 8 7 6 7 10 11 12 13 12 12 14 15 15 14 13 12 12 11 11 10 9 9 8 7 7 7 7 7 6 6 5 6 6 6 6 6 6 6 6 6 7 8 8 9 10 9 9 10 10 10 11 10 10 11 12 12 12 15 13
9 5 6 6 7 4 7 5 11 9 10 6 3 5 4 3 5 3 7 8 10 10 10 11 12 12 11 9 9 8 8 7 7 7 4 4 7 7 6 6 7 9 11 11 11 12 11 11 12 14 14 13 13 12 11 12 10 10 10 9 8 7 7 7 7 7 7 7 7 6 6 6 6 7 6 5 5 6 7 7 8 8 9 9 9 9 8 10 10 10 10 10 10 11 12 13 13
3 0 3 2 6 2 8 3 6 8 9 10 5 6 4 8 5 4 3 11 12 12 12 11 11 9 9 8 8 7 6 6 5 3 4 7 8 7 7 8 9 9 10 10 11 10 10 10 12 13 12 11 11 12 11 11 10 9 10 10 9 8 7 6 6 6 7 8 8 7 7 6 6 7 7 7 5 5 5 6 7 8 9 8 9 9 9 9 9 10 10 10 11 8 11 13 13
3 3 5 3 4 2 4 3 3 1 5 14 8 11 14 10 14 16 18 8 10 11 11 10 9 8 8 8 7 6 5 5 4 4 6 8 8 8 8 9 8 8 9 9 9 9 10 10 11 12 11 10 10 10 10 10 10 10 10 10 9 8 8 8 7 8 9 8 7 7 7 7 7 6 5 6 7 5 5 6 7 8 8 8 8 9 8 8 8 9 10 10 11 10 11 13 12
6 3 2 1 2 2 4 8 5 8 12 10 6 14 13 9 9 8 9 10 9 8 10 9 9 8 8 6 5 5 4 3 4 6 7 7 7 8 8 8 8 8 9 9 10 9 8 8 9 9 8 9 9 9 10 10 10 10 10 10 10 9 8 7 7 7 7 7 7 7 7 7 7 7 6 5 6 6 6 6 7 6 6 7 8 8 7 7 7 8 9 10 10 8 11 11 11
4 2 4 3 3 6 6 4 8 11 13 10 10 15 14 14 16 10 6 10 10 9 9 8 7 6 7 6 5 4 3 3 4 5 5 6 8 8 8 8 8 8 9 9 9 9 9 8 8 7 8 8 9 8 8 8 8 7 7 8 9 9 9 9 8 8 7 6 6 6 6 6 7 7 7 6 5 5 6 6 5 6 6 6 7 7 7 7 8 9 9 9 9 10 10 11 11
2 2 3 1 3 5 10 8 7 6 16 12 12 10 12 10 12 13 17 10 10 10 8 6 7 6 5 5 3 3 2 2 3 4 4 4 5 6 6 7 8 8 8 8 7 6 9 8 8 8 8 8 9 9 8 7 7 6 6 6 6 7 7 7 7 7 6 6 6 6 6 6 6 6 5 5 5 5 5 6 5 6 7 7 7 7 7 7 7 9 9 8 9 10 12 12 11
4 5 8 5 3 2 6 2 7 10 13 12 11 11 9 9 6 7 12 11 8 8 7 6 6 5 5 3 3 2 2 2 3 2 2 2 2 2 3 4 4 5 6 7 7 9 9 9 10 9 9 9 9 8 7 6 6 6 6 8 8 7 8 7 7 6 6 6 6 6 6 5 6 6 6 6 5 4 5 5 6 6 6 7 7 7 7 7 8 8 8 9 9 10 12 12 11
12 9 9 9 8 9 9 11 5 5 7 10 10 14 7 2 7 6 7 7 6 7 9 7 6 5 3 3 3 2 1 2 1 1 0 1 1 2 3 4 4 6 6 7 7 6 7 8 7 8 8 8 8 8 7 7 6 6 7 6 6 5 5 6 6 6 7 7 8 7 7 7 7 6 6 7 6 4 3 4 5 6 7 7 7 7 7 7 8 8 9 7 8 10 11 12 11
Wind_Direction
274 239 289 282 275 274 295 262 286 162 232 280 290 310 68 30 15 300 307 28 357 66 19 342 289 271 278 351 322 320 309 298 317 305 352 89 139 136 162 130 159 162 159 158 153 155 169 178 183 177 178 178 180 182 182 178 180 179 179 179 180 183 179 178 176 177 178 178 178 177 173 172 172 169 166 165 161 156 153 155 160 160 163 159 154 145 134 126 118 107 103 112 104 90 87 85 79
278 303 266 268 268 284 212 353 279 273 242 270 196 328 41 8 261 12 13 7 21 353 345 314 296 272 266 283 292 298 279 240 271 311 10 113 143 146 153 147 155 166 164 161 154 160 169 174 192 179 180 182 183 185 184 180 183 184 183 184 184 188 187 184 182 183 186 185 186 182 177 175 174 169 162 157 150 147 154 161 166 174 172 162 155 142 127 117 109 106 103 109 103 94 92 88 81
313 302 263 230 244 255 296 240 279 316 309 291 42 60 30 241 324 33 6 355 353 349 323 290 292 263 253 244 270 263 345 347 305 294 300 138 213 110 151 153 153 171 166 164 161 163 170 172 187 184 184 183 188 187 187 186 187 189 188 190 191 192 192 193 188 189 191 190 193 190 187 177 172 161 160 150 148 146 156 161 167 178 162 151 139 131 120 112 110 112 112 117 106 97 92 87 82
283 293 293 273 262 196 269 227 256 288 303 317 275 79 47 343 3 342 345 16 335 317 292 262 272 117 266 256 312 320 256 295 47 340 300 81 42 124 157 157 148 171 163 169 169 166 177 159 176 186 184 186 187 188 189 187 190 190 191 193 194 195 196 196 193 195 193 195 197 195 187 178 169 164 157 153 148 149 152 162 158 158 145 136 132 122 111 110 114 110 119 115 111 101 97 93 90
264 243 270 275 280 256 281 296 298 298 271 3 320 356 53 350 324 333 329 340 308 287 265 299 268 153 267 289 318 286 19 326 145 66 315 77 70 101 149 156 160 169 167 175 172 170 180 151 171 186 188 188 188 188 191 188 193 191 191 195 195 197 198 198 196 199 199 199 197 196 182 178 173 163 155 152 156 149 155 159 148 143 139 142 129 123 114 117 116 117 124 125 111 103 101 99 96
250 245 194 258 280 14 265 257 232 231 265 320 296 322 338 342 333 345 316 314 343 269 258 253 281 324 221 221 216 250 14 317 61 263 293 81 73 104 157 160 171 173 168 175 175 172 175 151 166 182 192 191 190 189 190 191 194 194 191 195 197 198 201 200 198 204 202 199 197 189 185 178 175 168 168 161 152 156 166 157 164 151 150 151 160 148 147 128 131 121 144 141 116 106 105 102 98
255 219 174 213 199 226 269 276 289 305 346 34 307 307 319 322 331 323 311 314 116 210 174 235 335 269 257 217 206 240 260 64 281 53 20 109 99 171 156 176 178 180 169 173 178 176 154 156 162 174 195 195 195 191 189 193 195 195 196 198 200 199 202 202 202 206 204 199 195 182 184 176 172 171 172 164 166 178 189 176 173 168 171 170 178 159 168 163 145 144 149 162 125 110 108 107 102
284 278 105 250 206 202 240 258 275 283 316 23 318 295 297 317 325 312 307 308 22 290 157 248 236 287 294 96 298 105 109 193 121 121 115 144 116 164 172 184 184 182 175 174 173 174 129 158 165 174 188 196 197 190 189 193 198 197 198 199 201 201 203 204 204 207 203 197 190 183 178 176 179 177 177 176 153 191 190 206 230 210 203 191 197 197 207 181 175 160 151 164 118 114 109 105 104
221 259 79 260 252 202 266 266 281 272 279 284 283 275 276 286 305 308 296 296 288 262 264 235 203 260 88 261 259 135 141 134 142 115 121 125 169 166 180 194 189 180 176 176 172 174 143 151 166 174 187 195 194 190 190 194 199 201 198 200 201 202 203 204 205 204 196 192 188 181 178 182 181 180 184 172 180 188 205 210 223 215 227 215 220 218 215 200 186 177 163 163 117 111 106 103 101
197 264 197 264 319 271 267 264 250 27 315 328 296 300 302 299 290 295 303 293 348 313 262 24 261 244 297 302 302 251 134 155 137 172 191 169 182 177 182 196 196 181 177 178 178 177 156 150 164 179 186 192 193 191 189 196 199 200 200 200 202 202 203 203 204 202 191 186 188 183 188 187 192 195 196 189 189 199 223 230 230 220 208 219 226 217 211 202 195 177 173 139 117 112 109 105 104
229 191 322 267 237 266 274 308 327 314 286 312 275 283 314 330 314 291 277 294 284 289 126 171 233 241 259 275 283 88 119 142 157 136 153 161 175 176 193 187 193 184 183 182 178 180 168 160 168 181 188 190 190 188 187 193 199 198 200 199 201 201 200 201 197 200 189 192 192 196 190 190 189 189 200 215 217 222 236 228 221 221 220 217 198 199 198 204 187 181 162 129 119 115 112 109 108
244 215 186 271 286 300 318 319 315 300 308 292 275 93 88 72 248 253 221 282 329 269 271 157 342 358 287 279 277 147 135 137 139 97 121 141 180 176 213 173 193 190 187 182 182 186 184 169 173 181 195 190 188 186 187 192 196 193 194 197 199 198 198 197 197 193 194 197 199 201 209 208 186 189 209 207 178 203 223 221 216 216 212 206 199 196 190 195 186 163 141 128 124 120 117 115 109
281 334 259 271 289 296 322 295 296 319 288 261 79 107 99 200 238 298 318 306 287 291 289 181 345 287 277 288 308 193 171 114 99 102 119 166 160 159 197 187 187 193 189 187 188 190 188 184 189 189 191 191 191 190 188 189 193 192 192 194 193 194 194 195 196 190 196 194 195 202 212 218 186 194 168 168 181 197 210 220 215 215 210 206 203 198 190 189 179 149 136 134 132 127 120 115 109
271 299 304 284 337 274 278 293 290 285 304 69 73 119 182 253 233 302 308 284 289 291 46 8 274 308 278 275 270 242 95 98 111 109 130 133 120 154 179 192 184 200 195 193 197 194 192 194 189 192 192 191 193 190 194 192 193 194 191 190 189 190 194 195 195 194 197 192 191 191 187 143 147 147 160 169 181 193 198 221 215 215 212 207 204 198 189 183 158 142 139 138 135 127 118 111 105
269 337 277 270 285 281 259 263 324 319 291 331 102 178 206 223 246 238 270 293 292 67 104 229 264 141 296 274 293 59 114 124 118 119 123 135 144 171 182 197 192 205 206 202 202 200 199 197 194 194 195 201 202 199 198 195 201 197 193 192 191 192 193 197 195 195 189 188 192 185 159 146 151 147 155 170 178 177 171 193 225 211 210 205 202 197 188 175 150 144 144 142 134 127 120 111 105
279 286 246 275 273 274 247 236 262 277 282 329 103 107 255 274 186 228 241 273 294 299 235 268 180 237 274 282 289 88 119 133 131 139 136 142 159 175 191 208 214 206 211 208 207 205 204 199 202 197 197 200 204 205 206 202 196 207 203 198 198 197 195 192 192 191 186 185 183 161 144 138 140 145 145 151 155 155 158 199 201 223 207 204 199 192 185 166 152 149 149 143 136 128 116 106 99
255 259 259 242 259 244 228 265 248 276 351 324 134 186 278 301 139 255 60 279 274 278 265 241 233 225 251 253 284 131 130 122 141 142 149 164 178 195 198 208 214 213 208 210 210 205 207 207 203 203 199 200 203 206 206 209 200 195 207 207 203 201 195 191 190 187 179 179 163 148 145 165 173 162 157 178 141 176 169 191 187 205 208 203 192 187 182 166 157 155 152 145 138 124 109 98 94
214 225 244 254 260 265 279 262 284 298 292 302 279 273 283 288 225 170 194 243 242 265 266 269 245 241 245 254 256 132 145 154 162 169 190 199 192 204 202 204 201 211 201 205 209 209 203 206 204 204 201 202 204 207 208 204 199 187 205 206 205 201 198 189 187 197 185 189 163 152 176 192 198 195 186 190 182 188 171 180 175 194 205 187 178 186 181 174 160 158 154 148 136 124 130 126 106
216 250 253 262 268 291 319 284 289 294 284 298 297 287 267 275 292 297 286 278 279 277 267 263 255 243 246 250 244 197 179 191 184 210 222 216 211 218 212 199 205 209 204 204 205 206 205 202 203 204 203 201 203 205 206 210 207 183 202 212 209 207 203 195 204 202 203 205 183 186 194 204 203 203 203 186 200 180 182 166 172 182 202 156 169 180 181 174 160 158 151 142 135 148 191 148 140
227 256 261 259 259 268 270 278 287 282 292 285 291 293 289 277 282 286 259 277 281 269 271 273 268 267 248 240 239 237 219 220 211 218 229 234 231 231 230 218 206 208 210 202 202 201 203 204 203 205 203 201 201 204 204 209 210 204 200 210 215 211 210 201 211 214 215 214 205 202 203 206 200 206 161 158 168 173 162 162 165 178 157 138 150 157 171 167 158 146 133 131 143 199 192 167 138
203 226 242 262 289 297 274 281 277 282 285 286 286 291 281 274 274 254 254 277 264 263 257 259 272 284 299 307 311 290 229 221 222 220 232 235 235 233 236 232 221 209 208 205 203 197 200 204 202 205 204 203 201 201 205 208 210 212 212 211 212 211 212 212 209 214 212 211 211 213 210 200 197 199 169 169 184 186 176 178 174 180 172 168 153 185 179 170 164 156 148 176 193 192 182 166 157
284 241 252 268 276 266 267 279 292 284 354 286 281 278 275 299 265 247 249 255 263 263 284 297 297 302 304 302 302 295 245 233 238 232 229 230 232 232 232 237 235 230 200 204 203 200 198 203 203 201 203 205 203 201 201 203 207 211 211 209 208 207 203 203 204 206 210 207 208 209 208 208 207 198 182 183 187 185 179 180 181 184 182 184 176 187 184 168 183 170 172 190 189 179 178 156 170
250 251 248 252 260 271 288 289 339 275 278 275 276 278 293 275 275 264 253 245 256 262 275 283 285 289 293 294 287 272 255 250 256 252 243 238 235 236 238 237 235 226 211 212 207 208 202 201 203 200 200 203 207 204 202 205 208 212 211 210 207 200 200 198 198 202 205 201 201 203 207 204 203 202 181 185 188 189 186 183 181 182 181 183 182 191 184 172 184 171 173 181 176 163 153 137 118
248 270 278 281 287 272 282 286 112 253 263 267 276 292 280 275 274 279 266 256 258 267 269 271 277 282 285 283 278 267 260 260 259 257 253 249 244 240 234 237 240 238 225 216 210 211 204 203 200 200 203 201 203 203 204 206 208 209 211 207 205 202 199 198 198 200 200 200 198 202 202 201 198 197 184 186 187 192 190 183 181 182 181 184 178 193 175 173 174 171 170 165 160 156 154 156 148
245 260 261 265 269 278 281 278 273 260 255 263 273 274 266 264 270 289 274 269 268 267 269 270 272 277 279 275 274 269 264 261 258 257 254 249 249 250 246 243 243 240 239 226 213 210 210 203 200 203 202 203 201 200 205 206 208 208 208 210 211 205 203 201 197 197 201 198 196 203 199 199 198 192 185 185 184 191 186 185 184 185 181 180 177 182 172 172 174 168 165 165 169 167 158 163 148
247 250 271 287 285 280 277 279 269 256 261 255 255 255 264 268 279 269 269 275 267 263 268 270 274 275 274 272 268 268 267 262 258 260 259 255 246 246 241 233 231 231 230 229 218 211 208 200 198 199 199 201 198 196 202 205 207 207 206 209 211 205 205 200 196 200 199 196 197 204 199 202 195 187 184 185 186 187 185 184 183 180 178 177 177 176 175 174 172 166 165 166 167 165 167 158 156
28 298 296 290 286 287 278 270 268 261 261 253 242 256 266 276 273 274 267 276 312 266 262 273 279 279 278 276 268 264 264 261 258 261 266 257 252 238 235 225 224 231 230 230 224 216 205 201 201 199 199 196 197 199 200 204 204 207 204 205 207 212 205 199 199 200 199 199 196 198 203 201 188 187 185 185 185 184 186 184 184 179 179 176 175 171 169 174 171 170 168 168 168 168 166 152 167
293 307 304 283 278 272 270 265 261 257 260 256 245 253 270 274 257 254 273 270 258 270 275 277 282 282 280 277 272 264 257 256 250 247 250 253 244 236 234 221 225 224 221 226 224 218 206 204 202 201 199 196 196 200 198 202 203 205 203 203 207 207 210 202 199 198 199 200 201 202 201 192 188 188 186 184 184 182 185 183 183 182 181 173 174 169 163 170 168 167 162 170 168 169 154 155 163
290 304 290 285 283 280 268 261 261 247 245 170 230 261 257 257 234 243 246 257 264 269 276 277 275 278 281 281 276 268 258 258 250 237 234 236 237 239 249 235 229 225 219 222 218 213 212 204 204 203 201 198 198 200 197 199 200 202 201 204 203 202 209 209 199 199 197 195 193 190 189 189 189 189 187 185 183 183 183 180 184 185 182 172 173 162 154 157 159 152 155 156 164 164 152 149 151
286 266 268 285 281 271 273 266 252 217 236 129 157 277 241 248 252 247 250 254 259 244 271 289 292 289 285 282 276 271 267 267 264 259 259 251 242 238 246 256 255 248 238 222 214 215 208 204 200 199 198 201 200 203 201 198 200 201 201 202 201 201 206 210 201 200 199 197 193 187 185 188 190 190 187 182 181 183 183 183 184 181 181 167 163 152 158 164 166 162 160 167 169 169 164 157 162
267 283 263 263 285 271 278 199 148 227 144 174 205 265 275 277 273 279 299 344 260 264 285 289 289 286 280 275 272 270 268 267 273 280 282 279 276 263 255 262 263 263 257 246 223 211 208 202 194 202 193 203 197 205 204 205 200 199 199 200 199 201 202 203 201 203 203 202 194 186 184 186 186 187 186 180 182 186 183 182 185 178 174 163 162 164 166 172 172 169 166 176 167 180 169 162 171
263 283 248 238 241 264 276 209 184 248 148 207 190 260 270 276 271 285 289 226 256 271 280 282 280 280 280 278 272 269 273 277 286 297 289 289 294 289 278 274 275 272 265 258 249 223 222 215 198 206 197 201 204 202 204 206 205 202 203 202 203 200 204 207 203 204 204 204 200 189 183 184 183 185 185 182 180 189 186 184 183 178 167 162 166 165 174 174 177 173 174 177 165 180 167 164 172
243 240 266 267 269 283 291 257 250 263 124 195 202 271 293 281 285 291 288 286 284 282 284 281 275 275 279 279 278 277 283 289 291 292 323 319 308 309 308 306 298 289 280 271 264 247 232 229 208 206 205 200 204 203 204 207 208 206 206 208 207 201 202 203 201 203 203 205 207 197 183 181 177 182 183 182 180 187 188 188 184 178 165 166 167 167 178 178 174 172 173 184 177 170 167 163 168
257 241 255 253 272 292 278 302 287 327 180 256 214 244 258 275 283 279 277 279 279 281 279 275 276 279 279 281 281 283 288 297 307 345 324 330 339 342 338 342 336 328 317 301 279 268 258 246 227 208 214 208 207 205 203 203 205 205 207 208 207 206 208 210 208 206 210 205 211 206 179 178 176 182 181 179 180 186 188 188 184 174 162 167 168 169 181 177 174 175 169 181 183 170 168 166 166
293 302 295 290 284 283 293 296 309 265 228 257 274 263 272 282 287 281 277 278 274 267 272 277 282 286 285 277 283 289 292 325 2 336 358 11 17 11 7 5 358 347 339 332 317 295 270 263 243 212 210 215 211 209 203 204 207 210 210 210 205 209 213 227 213 212 217 218 224 211 178 176 173 181 177 177 180 184 188 188 184 169 163 169 169 170 178 181 176 179 174 170 181 177 166 163 162
283 290 296 293 287 284 286 289 290 292 291 290 287 285 292 295 295 290 285 280 277 273 273 285 286 277 273 285 289 299 41 350 8 23 34 33 28 17 14 11 9 10 7 10 7 352 312 284 265 240 212 215 212 210 201 201 203 208 210 214 222 221 226 230 231 223 225 225 226 208 181 177 175 180 178 177 180 182 184 188 183 161 167 171 173 175 180 182 177 177 179 165 163 154 164 156 146
285 287 277 275 277 278 278 274 283 289 293 279 283 288 294 298 294 288 281 279 277 277 276 272 270 271 276 282 64 62 355 17 52 55 49 38 33 23 21 16 14 21 20 15 21 15 355 305 271 251 222 209 205 200 202 199 201 207 213 217 221 218 224 232 229 228 236 232 226 205 184 182 174 177 180 177 184 182 186 185 181 166 168 177 182 186 184 182 176 174 167 164 161 147 156 155 145
280 282 280 277 274 281 279 288 297 293 293 288 288 288 289 295 296 285 278 280 281 272 267 262 261 277 331 84 53 326 30 93 73 53 43 39 30 26 22 18 17 19 13 14 17 9 2 353 316 283 222 204 209 208 204 206 212 213 212 215 219 220 218 219 224 218 228 232 220 201 192 186 177 179 177 182 183 186 187 189 185 170 172 184 188 184 182 177 173 175 163 158 178 167 164 163 157
273 269 275 282 281 284 286 282 291 328 340 286 298 297 296 287 275 276 281 273 253 261 260 260 279 9 65 328 334 72 106 84 59 45 41 34 31 28 25 24 24 23 14 15 13 11 14 8 2 327 293 227 218 216 211 213 214 219 222 230 222 222 222 224 222 226 230 226 215 199 196 185 182 181 180 185 184 190 193 192 188 173 178 180 182 184 182 179 176 177 175 170 166 184 162 168 170
259 262 264 269 288 290 298 301 106 214 251 298 304 299 290 272 265 264 269 225 227 252 260 291 48 52 16 56 80 99 77 67 51 44 35 30 30 24 23 24 22 21 21 17 15 12 9 7 3 355 344 319 273 229 237 246 244 229 222 239 239 229 249 201 207 214 215 212 210 195 201 195 190 188 186 186 186 195 198 197 191 180 179 183 186 184 184 184 178 180 182 183 167 163 181 177 186
253 252 261 273 272 278 290 305 311 309 294 279 304 287 286 279 141 181 201 237 247 266 262 85 77 79 84 82 66 61 62 54 51 43 36 31 27 26 22 21 19 22 19 16 12 12 5 8 9 2 3 6 3 354 247 263 229 193 168 96 94 184 93 192 195 216 208 204 209 203 204 198 195 194 190 191 192 199 200 202 198 189 180 185 189 193 191 188 182 187 184 183 183 174 179 162 185
271 257 257 264 276 288 296 307 318 309 299 80 343 328 319 111 185 314 317 284 287 273 124 109 107 105 97 86 75 65 58 50 47 42 40 37 34 30 25 23 24 20 17 10 7 7 5 4 17 25 33 29 20 11 353 287 251 250 232 230 231 231 243 227 229 225 217 213 216 215 210 205 200 202 202 201 199 197 201 202 201 194 185 184 192 200 199 186 189 188 187 190 189 194 176 151 175
268 282 352 299 299 299 298 303 322 299 305 91 36 306 292 260 277 272 271 263 250 267 84 95 104 101 83 71 65 54 47 50 42 41 35 33 26 28 29 26 22 20 13 7 6 6 6 5 24 35 39 42 36 11 5 339 309 288 275 271 280 279 277 268 256 251 243 233 220 213 209 203 205 205 209 209 205 203 206 206 205 204 193 192 193 201 201 198 191 192 185 195 194 190 178 180 179
266 43 335 320 303 300 310 314 277 274 284 278 252 214 270 293 282 272 195 250 256 90 92 103 102 93 79 74 68 54 47 47 48 40 37 33 30 27 26 23 21 17 7 8 10 11 9 12 30 35 39 40 33 24 20 9 339 335 321 305 290 284 285 291 305 291 255 252 232 214 211 207 204 210 214 212 209 205 204 209 210 209 206 202 194 207 206 201 185 192 194 197 196 196 194 192 182
304 46 7 315 311 301 298 284 287 286 305 296 175 206 260 262 306 179 228 244 236 95 106 109 102 92 85 82 81 78 66 51 49 46 42 36 31 28 24 25 21 15 8 5 6 10 6 15 33 40 41 38 27 27 23 20 9 345 338 327 310 303 298 296 296 299 269 238 227 214 215 215 207 209 216 219 214 212 205 210 211 210 209 210 205 209 209 207 199 184 189 193 200 200 202 201 188
92 69 142 232 246 250 265 273 277 287 283 275 234 193 254 285 305 250 203 269 117 108 105 98 80 71 76 87 85 80 74 64 51 48 49 45 37 35 32 31 30 21 7 357 3 7 3 17 37 40 39 36 29 26 22 22 14 3 348 341 331 322 319 311 302 297 298 272 241 230 224 221 219 209 211 216 217 214 212 208 213 213 213 212 211 210 212 216 211 202 196 199 205 206 205 206 204
99 264 289 272 240 241 227 238 258 277 258 268 257 198 221 293 328 295 257 211 132 131 139 128 115 97 80 70 74 76 71 59 57 55 48 45 39 34 30 34 30 25 13 2 1 0 10 32 35 39 34 33 29 27 25 24 18 10 4 349 341 331 324 317 312 307 302 291 276 260 242 236 227 219 209 212 215 216 216 213 214 216 215 214 214 212 211 209 202 195 193 203 207 211 211 210 212
260 275 291 304 275 202 239 232 225 261 276 39 38 179 217 250 216 75 83 112 139 161 151 137 110 103 101 89 68 63 64 63 54 52 45 34 32 32 29 30 27 19 8 2 357 11 27 33 33 37 33 29 26 23 24 25 21 16 7 358 344 332 324 313 309 309 309 302 293 283 271 252 242 232 220 219 218 216 216 218 217 222 219 217 216 212 210 211 212 201 195 192 201 209 217 214 217
222 245 252 276 295 295 276 229 241 242 276 101 58 35 275 241 248 277 282 143 114 93 118 135 121 110 102 89 79 67 62 57 49 46 42 28 22 25 25 28 29 24 7 6 20 24 29 32 32 36 32 26 25 24 25 25 25 19 9 358 349 342 334 326 314 304 301 300 302 296 288 278 265 247 230 225 224 216 213 219 217 216 221 219 220 217 214 212 214 208 201 203 206 207 211 212 213
198 216 224 255 285 275 274 276 269 269 139 134 106 98 264 268 271 242 242 159 112 108 105 118 121 119 113 104 85 72 64 61 55 51 49 27 24 40 37 25 21 15 16 18 23 27 29 34 31 34 33 27 24 25 25 25 27 21 11 7 354 346 338 325 317 311 310 308 306 304 302 295 289 277 266 244 232 215 215 221 222 223 224 224 220 221 217 213 212 215 205 207 207 211 211 217 223
202 218 212 251 256 262 280 282 277 286 295 321 185 306 244 308 339 353 230 93 106 97 97 96 98 101 102 100 90 75 66 56 58 60 46 41 47 42 35 28 26 26 24 25 25 27 28 31 32 35 33 27 26 24 26 27 25 22 17 10 3 355 343 336 328 325 320 317 314 311 303 303 299 297 291 282 254 227 218 222 228 230 227 227 223 220 218 220 215 220 216 215 213 211 215 216 222
165 13 8 267 241 213 253 289 289 295 300 286 233 221 292 267 23 2 92 106 106 111 101 103 97 93 93 83 72 68 60 57 52 56 46 43 43 39 36 32 30 25 24 26 28 27 27 29 33 36 33 27 25 26 28 27 25 24 23 14 8 0 349 341 334 333 328 323 317 310 302 294 291 298 301 301 288 246 226 225 230 232 234 231 228 226 220 217 213 220 226 222 221 214 218 218 222
121 165 215 234 24 232 281 285 223 283 274 259 266 270 263 274 263 250 236 110 99 103 106 102 99 95 89 85 79 68 55 45 41 33 31 32 35 33 33 34 30 29 29 28 27 25 28 29 31 31 28 27 26 26 25 26 25 24 21 17 11 6 359 352 343 335 329 324 318 309 302 300 295 286 284 296 296 270 244 232 233 235 234 234 232 231 227 224 221 223 225 226 227 220 221 221 220
99 232 202 66 267 8 258 269 259 242 255 269 264 270 280 279 288 81 98 114 125 119 112 104 104 102 86 75 80 84 69 52 41 37 37 32 29 27 28 28 25 24 26 26 28 28 28 34 33 34 28 23 21 24 26 25 20 19 17 13 9 10 5 355 349 340 332 326 320 315 313 310 306 304 297 286 277 273 268 249 241 239 237 234 233 232 230 228 225 228 227 230 231 223 227 230 225
266 293 359 281 253 256 201 246 255 259 256 269 236 262 264 267 268 267 198 156 147 127 122 122 113 106 110 109 105 96 88 66 50 42 36 32 26 25 20 17 15 16 17 21 17 17 24 28 28 32 33 32 27 24 26 33 30 24 16 13 7 5 6 2 354 349 338 331 326 319 315 313 308 303 300 295 285 275 266 257 245 241 240 236 232 232 228 229 222 229 227 232 227 229 233 231 228
121 329 268 202 330 258 268 257 278 272 272 272 262 242 256 253 271 271 279 170 137 138 133 116 114 111 110 113 110 99 91 84 72 59 50 39 35 22 12 4 5 7 8 8 10 11 18 15 16 19 22 26 28 27 22 20 23 27 23 21 19 15 9 1 353 353 345 340 333 324 319 321 316 313 303 297 288 281 275 269 255 243 236 235 235 232 229 230 228 231 230 229 227 223 232 235 233
198 223 246 223 216 348 302 289 234 249 263 254 273 260 256 270 359 26 69 112 137 139 127 111 101 95 93 97 106 92 72 60 54 47 38 23 16 14 2 3 359 5 11 13 12 14 12 11 11 11 14 11 15 17 13 9 6 6 10 12 9 10 10 7 1 360 352 346 344 334 340 333 320 313 311 299 292 289 288 282 273 261 248 240 235 234 229 230 232 234 232 233 234 230 231 234 231
274 258 248 256 262 250 239 251 208 240 240 258 257 258 251 296 21 40 70 78 79 97 122 116 115 110 101 80 58 52 53 76 55 47 25 346 7 11 8 10 10 13 16 17 17 14 13 10 8 7 12 12 2 358 358 352 356 354 359 356 349 345 353 355 4 6 3 2 353 350 344 339 335 325 326 316 310 301 292 287 284 280 273 259 247 239 232 228 231 234 235 231 235 235 236 236 234